Regional Weather Roundup
Issued by NWS

Home | Current Version | Previous Version | Graphics & Text | Print | Product List | Glossary Off
Versions: 1 2 3 4 5 6 7 8 9 10 11 12 13 14 15 16 17 18 19 20 21 22 23 24 25 26 27 28 29 30 31 32 33 34 35 36 37 38 39 40 41 42 43 44 45 46 47 48 49 50

000
ASUS43 KBIS 210310
RWRND

NORTH DAKOTA REGIONAL WEATHER ROUNDUP
NATIONAL WEATHER SERVICE BISMARCK ND
1000 PM CDT SAT SEP 20 2014

NOTE: "FAIR" INDICATES FEW OR NO CLOUDS BELOW 12,000 FEET WITH NO
SIGNIFICANT WEATHER AND/OR OBSTRUCTIONS TO VISIBILITY.


NDZ001>003-009>011-017-210400-
NORTHWEST NORTH DAKOTA

CITY           SKY/WX    TMP DP  RH WIND       PRES   REMARKS
WILLISTON      CLEAR     52  36  54 W7        30.16R
MINOT          CLEAR     58  41  53 W12       30.07R
MINOT AFB      CLEAR     54  44  69 NW10      30.06R
$$

NDZ018>021-031>035-040>046-210400-
SOUTHWEST NORTH DAKOTA

CITY           SKY/WX    TMP DP  RH WIND       PRES   REMARKS
BISMARCK       CLEAR     61  40  45 NW9       30.09R
DICKINSON      CLEAR     48  36  63 W8        30.16R
GARRISON         N/A     56  40  55 W10       30.09R
HETTINGER ARPT CLEAR     47  36  65 W7        30.18R
$$

NDZ004>008-012>016-024-026-027-054-210400-
NORTHEAST NORTH DAKOTA

CITY           SKY/WX    TMP DP  RH WIND       PRES   REMARKS
GRAND FORKS    CLOUDY    54  51  90 W6        29.92R
GRND FRKS AFB  MOCLDY    53  53  99 NW7       29.94R
DEVILS LAKE    MOCLDY    61  45  55 NW13      29.97R
$$

NDZ022-023-025-028>030-036>039-047>053-210400-
SOUTHEAST NORTH DAKOTA

CITY           SKY/WX    TMP DP  RH WIND       PRES   REMARKS
FARGO          MOCLDY    56  50  80 N5        29.92R
JAMESTOWN      MOCLDY    58  44  60 NW10      29.98R
$$



USA.gov is the U.S. government's official web portal to all federal, state and local government web resources and services.